Ridgecrest, CA

2:25 AM PST on December 09, 2016 (GMT -0800)
China Lake NAWS

Weather History for KNID - December, 2013

Change the Weather History Date:

Monday, December 9, 2013

  Actual Average Record
Temperature  
Mean Temperature 30 °F -  
Max Temperature 43 °F 56 °F 66 °F (2012)
Min Temperature 17 °F 33 °F 17 °F (2013)
Degree Days  
Heating Degree Days 35    
Moisture  
Dew Point 3 °F    
Average Humidity 40    
Maximum Humidity 68    
Minimum Humidity 15    
Precipitation  
Precipitation 0.00 in - - ()
Sea Level Pressure  
Sea Level Pressure 30.46 in    
Wind  
Wind Speed 4 mph (SSE)    
Max Wind Speed 9 mph    
Max Gust Speed -    
Visibility 10 miles    
Events      
Averages and records for this station are not official NWS values.
T = Trace of Precipitation, MM = Missing Value Source: NWS Daily Summary

Daily Weather History Graph

Daily Weather History Graph

Search for Another Location

Airport or City:

Trip Planner

Search our weather history database for the weather conditions in past years. The results will help you decide how hot, cold, wet, or windy it might be!

Date:

Astronomy

Dec. 09, 2013 Rise Set
Actual Time 6:49 AM PST 4:37 PM PST
Civil Twilight 6:20 AM PST 5:05 PM PST
Nautical Twilight 5:48 AM PST 5:37 PM PST
Astronomical Twilight 5:17 AM PST 6:08 PM PST
Moon 11:56 AM PST No Moon Set
Length of Visible Light 10h 44m
Length of Day
9h 48m
First Quarter, 52% of the Moon is Illuminated
Dec 9
First Quarter
Dec 17
Full
Dec 25
Last Quarter
Jan 1
New
Jan 7
First Quarter

Hourly Weather History & Observations

Time (PST) Temp. Windchill Dew Point Humidity Pressure Visibility Wind Dir Wind Speed Gust Speed Precip Events Conditions
12:56 AM 21.9 °F 17.2 °F 10.9 °F 63% 30.31 in - East 3.5 mph - N/A   Clear
1:56 AM 21.0 °F 16.2 °F 10.0 °F 63% 30.33 in - South 3.5 mph - N/A   Clear
2:56 AM 17.1 °F 10.0 °F 8.1 °F 68% 30.35 in - WNW 4.6 mph - N/A   Clear
3:56 AM 17.1 °F 6.6 °F 8.1 °F 68% 30.36 in - SSW 8.1 mph - N/A   Clear
4:56 AM 17.1 °F - 8.1 °F 68% 30.38 in - Calm Calm - N/A   Clear
5:56 AM 18.0 °F 8.7 °F 8.1 °F 65% 30.41 in 10.0 mi SSW 6.9 mph - N/A   Clear
6:56 AM 17.1 °F 10.0 °F 8.1 °F 68% 30.45 in 10.0 mi SSE 4.6 mph - N/A   Clear
7:56 AM 23.0 °F - 10.0 °F 58% 30.48 in 10.0 mi Calm Calm - N/A   Clear
8:56 AM 30.9 °F - 10.9 °F 43% 30.50 in 10.0 mi Calm Calm - N/A   Clear
9:56 AM 34.0 °F - 10.9 °F 38% 30.53 in 10.0 mi Calm Calm - N/A   Clear
10:56 AM 39.9 °F 37.8 °F 6.1 °F 25% 30.52 in 10.0 mi Variable 3.5 mph - N/A   Clear
11:56 AM 41.0 °F 39.0 °F 3.0 °F 21% 30.50 in 10.0 mi East 3.5 mph - N/A   Clear
12:56 PM 42.1 °F - 1.0 °F 18% 30.47 in 10.0 mi Calm Calm - N/A   Clear
1:56 PM 43.0 °F - 1.0 °F 17% 30.45 in 10.0 mi Calm Calm - N/A   Clear
2:56 PM 43.0 °F 39.5 °F -0.9 °F 16% 30.45 in 10.0 mi SSE 5.8 mph - N/A   Clear
3:56 PM 43.0 °F - -0.9 °F 16% 30.46 in 10.0 mi Calm Calm - N/A   Clear
4:56 PM 37.9 °F 32.7 °F -6.0 °F 15% 30.48 in 10.0 mi East 6.9 mph - N/A   Clear
5:56 PM 33.1 °F 30.0 °F -5.1 °F 19% 30.49 in 10.0 mi SE 3.5 mph - N/A   Clear
6:56 PM 26.1 °F 18.4 °F -2.9 °F 28% 30.52 in 10.0 mi South 6.9 mph - N/A   Clear
7:56 PM 25.0 °F 15.5 °F -2.0 °F 31% 30.52 in 10.0 mi SSW 9.2 mph - N/A   Clear
8:56 PM 23.0 °F 18.4 °F -2.9 °F 32% 30.52 in 10.0 mi NE 3.5 mph - N/A   Clear
9:56 PM 21.9 °F 13.4 °F -0.9 °F 37% 30.52 in 10.0 mi SSW 6.9 mph - N/A   Clear
10:56 PM 23.0 °F 13.1 °F 1.0 °F 39% 30.52 in 10.0 mi SSW 9.2 mph - N/A   Clear
11:56 PM 19.9 °F 12.1 °F -0.0 °F 42% 30.53 in 10.0 mi North 5.8 mph - N/A   Clear